Showing default

NUSAT-37 (JOAN CLARKE), 56203

Orbit data source: Space-Track

NUSAT-37 (JOAN CLARKE), 56203 is a payload satellite owned by URUGUS S.A. (AR) in SSO that was launched on Sat, 15 Apr 2023 UTC via an FALCON 9 launch vehicle from the Air Force Western Test Range (AFWTR). Payload-class satellites include a variety of spacecraft equipped with specific instruments for various scientific and technological missions. These include communications satellites like Starlink; space stations such as the ISS; scientific satellites like the Hubble; Earth observation satellites from companies like Planet Labs, Umbra, and HawkEye 360; GPS; miniature CubeSats for education and research; and military/defense satellites.

Loading next visibility...
Identifier
56203, 2023-054AB
Orbit
SSO
Last TLE update
6 hours ago
Origin
Manufacturer
URUGUS S.A.
Mission
Operational Commercial Imaging
Bus & Motor
NEWSAT V, Unknown motor
Mass
41.5 kg wet, 38.5 kg dry
Launch date (UTC)
2023-04-15 (2 years ago)
Launch vehicle
FALCON 9
Launch site
Air Force Western Test Range (AFWTR)
Object type
Payload
Rocket body
Debris
Shape & HBR
Box, 0.813 m
Radar Cross Section
0.542 m², Medium (>0.1 m² and < 1m²)

Expand to show TLE details & history

TLE from 6 hours ago
0 NUSAT-37 (JOAN CLARKE)
1 56203U 23054AB  25192.18092633  .00012853  00000-0  30657-3 0  9994
2 56203  97.2929  93.1439 0005802 159.3176 200.8307 15.41671596125971
Epoch: 2025-07-11T04:20Z
TLE epoch observation values (Epoch: 2025-07-11T04:20:32.034Z)
Latitude
-0.00006°
Longitude
98.67389°
Altitude
447.998 km
Speed
7.641 km/s
True Right ascension
06h 12m 34s
True Declination
0° 00' 00"
Sunlit
Object was in daylight at epoch
Visualization orbit readout
Latitude
-22.04016°
Longitude
-84.04857°
Altitude
446.743 km
Speed
7.645 km/s
Apparent Right ascension
14h 53m 57s
Apparent Declination
-48° 05' 13"
Sunlit
Object is in full shadow
Visualization observer readout
Local Sidereal Time
22:11:06
Azimuth
235.758° WSW
Elevation
-40.297°
Doppler factor
1
Orbital elements
Apogee altitude
442.062 km
Perigee altitude
434.153 km
Semi-major axis
6,816.245 km
Eccentricity
0.00058
Inclination
97.2929°
RAAN
93.1439°
Arg. of periapsis
159.3176°
True anomaly
Unknown
Mean anomaly
200.8307°
Eccentric anomaly
Unknown
Mean motion
3.85678 °/min
Orbital period
93.34 mins
BSTAR
0.00030657
Loading maneuver chart data...
Loading SW <> Apogee altitude chart data...
Loading historical data...
Loading historical data...
Loading historical data...
Loading historical data...
Loading historical data...
Loading historical data...
Loading historical data...

NUSAT-37 (JOAN CLARKE) Visibility forecast

Observer location: undefined°, undefined°

Span
Click to sort rows by Start time (UTC) header in descending order
Start Az.
Max El. time (UTC)
Max El. Az.
Max El.
End time (UTC)
End Az.
5 mins2025-07-11 16:56:19.312Z133.489° SE2025-07-11 16:59:19.312Z64.794° ENE26.091°2025-07-11 17:01:19.312Z17.565° NNE
4 mins2025-07-12 05:51:19.312Z57.934° ENE2025-07-12 05:52:19.312Z92.267° ESE28.503°2025-07-12 05:55:19.312Z163.174° S
|